GFSNE_prec_pwat_273.txt.gz
Precipitable_Water
1.39 1.40 1.38 1.41 1.39 1.43 1.40 1.33 1.19 0.98 0.89 0.98 1.01 1.16 1.14 1.16 1.16 1.16 1.19 1.26 1.33 1.41 1.47 1.47 1.45 1.43 1.50 1.55 1.47 1.46 1.38 1.35 1.32 1.30 1.34 1.32 1.29 1.27
1.38 1.35 1.39 1.33 1.38 1.35 1.33 1.36 1.35 1.24 1.02 1.18 1.18 1.20 1.22 1.23 1.28 1.27 1.28 1.39 1.48 1.46 1.46 1.49 1.42 1.46 1.49 1.44 1.45 1.38 1.35 1.37 1.33 1.32 1.31 1.26 1.23 1.19
1.25 1.30 1.32 1.34 1.32 1.38 1.29 1.28 1.37 1.28 1.08 1.22 1.41 1.46 1.38 1.30 1.36 1.49 1.53 1.47 1.43 1.47 1.49 1.47 1.37 1.43 1.45 1.45 1.41 1.36 1.36 1.37 1.37 1.32 1.27 1.24 1.18 1.15
1.07 1.12 1.13 1.19 1.26 1.30 1.28 1.26 1.33 1.31 1.24 1.10 1.29 1.43 1.52 1.49 1.51 1.53 1.57 1.58 1.56 1.57 1.54 1.52 1.48 1.49 1.48 1.44 1.40 1.41 1.38 1.33 1.31 1.25 1.24 1.19 1.16 1.14
0.77 0.83 0.90 1.00 1.04 1.13 1.19 1.22 1.25 1.27 1.26 1.21 1.20 1.31 1.38 1.63 1.61 1.59 1.58 1.56 1.54 1.57 1.53 1.47 1.52 1.56 1.47 1.48 1.42 1.37 1.32 1.31 1.26 1.23 1.20 1.16 1.13 1.06
0.69 0.71 0.76 0.80 0.85 0.94 0.98 1.03 1.09 1.08 1.14 1.16 1.22 1.23 1.28 1.33 1.35 1.37 1.45 1.42 1.45 1.54 1.53 1.42 1.43 1.42 1.46 1.40 1.36 1.35 1.33 1.29 1.25 1.22 1.16 1.12 1.10 1.05
0.54 0.69 0.72 0.75 0.76 0.77 0.78 0.84 0.87 0.87 0.91 0.90 0.94 1.07 1.14 1.18 1.20 1.25 1.20 1.22 1.34 1.34 1.24 1.30 1.30 1.33 1.26 1.28 1.33 1.34 1.27 1.23 1.17 1.14 1.11 1.09 1.04 1.02
0.37 0.42 0.52 0.62 0.71 0.69 0.64 0.69 0.77 0.78 0.79 0.80 0.80 0.80 0.92 1.07 1.12 1.12 1.15 1.10 1.08 1.25 1.20 1.19 1.29 1.22 1.24 1.23 1.22 1.23 1.19 1.16 1.15 1.12 1.07 1.03 1.01 0.95
0.35 0.35 0.38 0.43 0.46 0.51 0.62 0.67 0.68 0.74 0.77 0.77 0.73 0.78 0.78 0.85 0.90 0.92 0.93 0.96 1.00 1.09 1.15 1.06 1.16 1.12 1.13 1.17 1.13 1.09 1.06 1.10 1.03 1.04 1.01 0.96 0.94 0.95
0.32 0.34 0.34 0.36 0.40 0.42 0.44 0.46 0.59 0.68 0.72 0.74 0.77 0.79 0.82 0.81 0.81 0.79 0.80 0.88 0.90 0.94 1.05 0.95 1.03 1.02 1.03 1.04 1.02 1.01 1.01 0.99 0.97 0.97 0.94 0.91 0.91 0.87
0.32 0.33 0.34 0.34 0.36 0.36 0.35 0.36 0.39 0.42 0.59 0.70 0.74 0.73 0.78 0.76 0.73 0.74 0.72 0.73 0.74 0.81 0.88 0.87 0.87 0.89 0.94 0.91 0.95 0.98 0.98 0.97 0.94 0.92 0.88 0.88 0.90 0.86
0.32 0.33 0.34 0.34 0.35 0.36 0.34 0.32 0.32 0.36 0.39 0.41 0.52 0.69 0.73 0.76 0.79 0.76 0.70 0.62 0.63 0.63 0.76 0.77 0.78 0.80 0.76 0.86 0.88 0.90 0.89 0.89 0.87 0.82 0.83 0.84 0.84 0.81
0.30 0.30 0.32 0.34 0.34 0.35 0.36 0.35 0.33 0.36 0.38 0.39 0.39 0.41 0.53 0.67 0.74 0.77 0.78 0.72 0.66 0.67 0.79 0.77 0.73 0.74 0.72 0.68 0.74 0.74 0.72 0.74 0.78 0.76 0.78 0.76 0.73 0.71
0.31 0.33 0.33 0.34 0.34 0.34 0.35 0.36 0.36 0.35 0.34 0.34 0.35 0.37 0.38 0.42 0.53 0.66 0.70 0.72 0.74 0.73 0.76 0.72 0.68 0.68 0.64 0.62 0.60 0.61 0.62 0.66 0.65 0.63 0.64 0.67 0.66 0.66
0.35 0.35 0.36 0.36 0.36 0.36 0.36 0.36 0.36 0.35 0.32 0.31 0.31 0.34 0.38 0.42 0.46 0.50 0.57 0.61 0.63 0.63 0.64 0.63 0.63 0.61 0.59 0.58 0.55 0.53 0.55 0.57 0.57 0.54 0.56 0.54 0.55 0.54
0.37 0.37 0.37 0.38 0.39 0.39 0.38 0.37 0.36 0.35 0.34 0.33 0.33 0.35 0.38 0.40 0.41 0.44 0.45 0.51 0.54 0.54 0.58 0.59 0.56 0.54 0.50 0.51 0.50 0.47 0.50 0.46 0.49 0.49 0.49 0.50 0.52 0.55
0.36 0.36 0.36 0.37 0.38 0.39 0.39 0.40 0.40 0.39 0.36 0.36 0.36 0.35 0.36 0.37 0.39 0.42 0.43 0.45 0.44 0.47 0.50 0.53 0.54 0.53 0.51 0.48 0.43 0.45 0.45 0.45 0.46 0.47 0.48 0.47 0.48 0.49
0.35 0.34 0.35 0.38 0.39 0.40 0.41 0.41 0.42 0.42 0.41 0.40 0.39 0.38 0.37 0.37 0.39 0.41 0.42 0.43 0.43 0.44 0.46 0.49 0.49 0.47 0.44 0.45 0.48 0.43 0.45 0.44 0.44 0.45 0.45 0.42 0.41 0.45
0.36 0.37 0.38 0.40 0.40 0.41 0.42 0.42 0.42 0.45 0.46 0.43 0.41 0.40 0.40 0.40 0.40 0.40 0.41 0.42 0.42 0.44 0.44 0.44 0.43 0.41 0.37 0.35 0.42 0.47 0.41 0.41 0.41 0.40 0.42 0.41 0.39 0.41
0.40 0.40 0.40 0.41 0.41 0.42 0.42 0.43 0.44 0.46 0.47 0.45 0.44 0.43 0.42 0.41 0.40 0.41 0.42 0.43 0.43 0.43 0.42 0.42 0.41 0.40 0.37 0.35 0.35 0.39 0.43 0.39 0.38 0.37 0.38 0.40 0.41 0.43
0.39 0.40 0.41 0.41 0.41 0.41 0.42 0.43 0.44 0.45 0.47 0.47 0.45 0.44 0.44 0.43 0.42 0.44 0.45 0.45 0.45 0.44 0.40 0.39 0.41 0.43 0.42 0.40 0.34 0.34 0.38 0.42 0.41 0.39 0.39 0.37 0.36 0.37
0.40 0.41 0.41 0.42 0.42 0.42 0.42 0.42 0.42 0.44 0.46 0.47 0.46 0.46 0.46 0.45 0.44 0.44 0.45 0.45 0.44 0.44 0.41 0.41 0.41 0.40 0.38 0.36 0.33 0.34 0.35 0.39 0.42 0.43 0.43 0.40 0.36 0.32
0.41 0.42 0.43 0.44 0.45 0.45 0.44 0.44 0.43 0.43 0.44 0.45 0.46 0.47 0.48 0.46 0.47 0.47 0.47 0.45 0.44 0.41 0.40 0.38 0.38 0.39 0.37 0.36 0.36 0.36 0.35 0.35 0.36 0.36 0.38 0.40 0.39 0.39

GFSNE_prec_pwat_276.txt.gz
Precipitable_Water
1.30 1.37 1.37 1.41 1.43 1.40 1.39 1.29 1.14 0.97 1.03 1.16 1.09 1.27 1.29 1.27 1.26 1.27 1.24 1.26 1.25 1.18 1.14 1.22 1.27 1.34 1.36 1.49 1.53 1.52 1.54 1.55 1.51 1.42 1.39 1.38 1.39 1.43
1.16 1.20 1.20 1.27 1.32 1.32 1.36 1.36 1.35 1.24 1.04 1.17 1.18 1.21 1.24 1.25 1.34 1.32 1.30 1.30 1.36 1.35 1.29 1.24 1.31 1.36 1.44 1.53 1.55 1.51 1.52 1.55 1.47 1.39 1.37 1.35 1.40 1.35
0.85 0.93 1.00 1.08 1.11 1.17 1.24 1.29 1.25 1.29 1.14 1.19 1.27 1.27 1.28 1.25 1.26 1.26 1.30 1.38 1.36 1.41 1.42 1.40 1.42 1.46 1.52 1.57 1.55 1.52 1.52 1.50 1.44 1.38 1.36 1.36 1.38 1.34
0.70 0.72 0.72 0.80 0.86 0.98 1.03 1.06 1.12 1.19 1.14 0.99 1.17 1.21 1.20 1.29 1.30 1.29 1.27 1.29 1.38 1.49 1.54 1.52 1.55 1.62 1.62 1.60 1.58 1.55 1.54 1.48 1.42 1.40 1.39 1.35 1.34 1.30
0.43 0.53 0.62 0.66 0.66 0.70 0.77 0.88 0.91 0.95 1.00 0.95 0.95 1.09 1.13 1.23 1.22 1.25 1.25 1.31 1.27 1.41 1.36 1.55 1.50 1.58 1.59 1.58 1.57 1.57 1.50 1.44 1.44 1.41 1.35 1.31 1.24 1.22
0.34 0.36 0.41 0.52 0.59 0.63 0.66 0.66 0.68 0.72 0.81 0.80 0.81 0.90 0.94 1.04 1.14 1.11 1.05 1.26 1.21 1.30 1.32 1.43 1.44 1.52 1.47 1.46 1.42 1.39 1.39 1.37 1.36 1.38 1.32 1.24 1.21 1.17
0.30 0.33 0.33 0.38 0.44 0.49 0.57 0.61 0.62 0.61 0.63 0.67 0.69 0.75 0.74 0.77 0.83 0.96 0.99 1.09 1.11 1.26 1.25 1.24 1.28 1.36 1.34 1.36 1.33 1.34 1.35 1.31 1.28 1.26 1.22 1.18 1.15 1.09
0.27 0.29 0.31 0.33 0.33 0.34 0.37 0.43 0.53 0.60 0.63 0.62 0.62 0.62 0.66 0.70 0.76 0.83 0.87 0.89 0.90 1.15 1.14 1.14 1.19 1.20 1.24 1.27 1.27 1.25 1.24 1.21 1.20 1.17 1.11 1.11 1.07 1.05
0.29 0.29 0.29 0.31 0.32 0.32 0.33 0.33 0.36 0.41 0.51 0.57 0.62 0.66 0.66 0.72 0.70 0.69 0.72 0.80 0.84 0.96 1.00 1.00 1.07 1.06 1.14 1.17 1.16 1.15 1.14 1.13 1.12 1.10 1.06 1.03 1.02 1.01
0.31 0.31 0.30 0.30 0.32 0.32 0.32 0.30 0.30 0.32 0.35 0.41 0.48 0.58 0.69 0.75 0.74 0.74 0.73 0.70 0.74 0.84 0.91 0.85 0.97 0.99 0.99 1.01 1.06 1.02 1.06 1.06 1.05 1.01 0.97 0.96 0.95 0.93
0.30 0.33 0.33 0.32 0.32 0.33 0.31 0.29 0.29 0.31 0.34 0.35 0.38 0.42 0.49 0.62 0.73 0.71 0.65 0.65 0.63 0.69 0.79 0.80 0.82 0.84 0.88 0.92 0.98 1.00 0.99 0.98 0.97 0.95 0.93 0.94 0.92 0.89
0.30 0.32 0.35 0.34 0.34 0.33 0.31 0.29 0.26 0.29 0.31 0.32 0.33 0.35 0.39 0.42 0.52 0.68 0.71 0.65 0.65 0.62 0.70 0.66 0.71 0.77 0.74 0.82 0.87 0.90 0.91 0.92 0.90 0.89 0.87 0.87 0.85 0.82
0.28 0.31 0.35 0.36 0.35 0.35 0.35 0.33 0.31 0.33 0.32 0.32 0.32 0.32 0.34 0.37 0.40 0.47 0.61 0.71 0.68 0.68 0.76 0.73 0.68 0.72 0.73 0.72 0.77 0.79 0.80 0.80 0.80 0.81 0.81 0.81 0.78 0.77
0.30 0.33 0.36 0.37 0.36 0.36 0.37 0.36 0.36 0.35 0.34 0.32 0.30 0.30 0.31 0.34 0.38 0.42 0.47 0.55 0.69 0.72 0.78 0.77 0.70 0.69 0.64 0.62 0.61 0.69 0.72 0.72 0.72 0.69 0.70 0.72 0.70 0.71
0.35 0.36 0.37 0.37 0.37 0.38 0.39 0.39 0.38 0.37 0.35 0.32 0.31 0.31 0.33 0.36 0.38 0.40 0.44 0.48 0.52 0.61 0.70 0.71 0.67 0.62 0.59 0.55 0.52 0.55 0.57 0.61 0.61 0.62 0.62 0.59 0.58 0.59
0.36 0.36 0.37 0.37 0.37 0.38 0.39 0.40 0.40 0.41 0.40 0.38 0.36 0.36 0.37 0.37 0.37 0.40 0.39 0.42 0.43 0.47 0.55 0.60 0.64 0.62 0.55 0.53 0.50 0.48 0.49 0.46 0.50 0.51 0.51 0.51 0.51 0.51
0.37 0.37 0.35 0.35 0.35 0.37 0.39 0.41 0.43 0.44 0.42 0.43 0.41 0.40 0.38 0.38 0.38 0.41 0.41 0.41 0.39 0.40 0.44 0.52 0.58 0.61 0.57 0.52 0.46 0.47 0.46 0.45 0.47 0.47 0.47 0.47 0.50 0.53
0.37 0.36 0.36 0.37 0.38 0.40 0.41 0.41 0.43 0.43 0.43 0.43 0.43 0.44 0.41 0.39 0.39 0.41 0.42 0.41 0.40 0.41 0.42 0.46 0.49 0.49 0.49 0.49 0.51 0.46 0.46 0.45 0.46 0.47 0.46 0.43 0.43 0.47
0.38 0.38 0.38 0.38 0.39 0.41 0.41 0.41 0.41 0.43 0.45 0.45 0.44 0.45 0.45 0.43 0.41 0.41 0.42 0.42 0.42 0.43 0.44 0.45 0.45 0.43 0.38 0.36 0.42 0.47 0.42 0.42 0.42 0.41 0.42 0.42 0.40 0.42
0.39 0.38 0.38 0.39 0.39 0.39 0.40 0.40 0.41 0.42 0.43 0.44 0.45 0.46 0.46 0.44 0.42 0.41 0.42 0.42 0.43 0.44 0.43 0.44 0.44 0.42 0.38 0.36 0.35 0.39 0.44 0.40 0.39 0.38 0.38 0.40 0.42 0.43
0.39 0.39 0.40 0.40 0.41 0.41 0.41 0.41 0.42 0.41 0.41 0.42 0.44 0.46 0.46 0.45 0.43 0.43 0.43 0.44 0.44 0.43 0.41 0.42 0.44 0.46 0.43 0.41 0.35 0.34 0.38 0.42 0.41 0.38 0.38 0.37 0.36 0.36
0.39 0.39 0.40 0.41 0.42 0.42 0.43 0.43 0.43 0.43 0.42 0.42 0.43 0.45 0.47 0.46 0.45 0.44 0.44 0.43 0.43 0.43 0.42 0.43 0.45 0.43 0.39 0.36 0.34 0.34 0.34 0.37 0.41 0.42 0.43 0.40 0.36 0.32
0.40 0.41 0.42 0.42 0.43 0.43 0.42 0.43 0.43 0.43 0.43 0.43 0.43 0.44 0.46 0.46 0.46 0.46 0.45 0.45 0.44 0.42 0.41 0.40 0.41 0.40 0.37 0.36 0.35 0.34 0.34 0.35 0.37 0.36 0.37 0.41 0.41 0.40

GFSNE_prec_pwat_279.txt.gz
Precipitable_Water
1.02 1.07 1.10 1.18 1.21 1.25 1.27 1.26 1.13 0.98 1.04 1.17 1.19 1.22 1.24 1.25 1.23 1.24 1.23 1.16 1.13 1.21 1.24 1.22 1.19 1.19 1.13 1.11 1.17 1.26 1.35 1.36 1.45 1.50 1.51 1.57 1.56 1.55
0.70 0.74 0.83 0.93 1.02 1.10 1.15 1.12 1.16 1.13 0.99 1.15 1.21 1.30 1.34 1.32 1.33 1.34 1.32 1.26 1.17 1.14 1.25 1.29 1.28 1.24 1.23 1.22 1.21 1.27 1.31 1.35 1.39 1.48 1.53 1.51 1.54 1.49
0.47 0.54 0.59 0.67 0.69 0.75 0.86 0.94 0.99 1.00 0.91 1.06 1.15 1.20 1.18 1.21 1.23 1.35 1.37 1.29 1.34 1.27 1.23 1.26 1.32 1.38 1.39 1.35 1.33 1.33 1.38 1.41 1.43 1.48 1.50 1.50 1.53 1.49
0.31 0.33 0.35 0.44 0.53 0.61 0.65 0.65 0.68 0.80 0.80 0.75 0.84 0.91 0.97 1.10 1.11 1.13 1.21 1.24 1.28 1.31 1.28 1.23 1.27 1.27 1.34 1.41 1.41 1.45 1.40 1.50 1.55 1.52 1.54 1.53 1.53 1.46
0.28 0.29 0.30 0.32 0.35 0.37 0.43 0.50 0.62 0.64 0.63 0.62 0.65 0.77 0.81 0.93 0.94 0.95 1.04 1.14 1.22 1.20 1.17 1.21 1.21 1.23 1.27 1.29 1.29 1.46 1.43 1.50 1.49 1.48 1.54 1.52 1.47 1.41
0.28 0.29 0.29 0.30 0.30 0.32 0.31 0.33 0.35 0.42 0.56 0.60 0.60 0.62 0.70 0.76 0.82 0.74 0.74 0.90 0.91 1.00 1.07 1.12 1.16 1.22 1.22 1.16 1.33 1.45 1.42 1.33 1.38 1.41 1.37 1.38 1.37 1.36
0.27 0.28 0.30 0.30 0.31 0.31 0.30 0.31 0.31 0.30 0.31 0.34 0.42 0.54 0.63 0.63 0.62 0.68 0.67 0.72 0.78 0.84 0.87 0.90 0.95 1.03 1.13 1.21 1.26 1.28 1.34 1.35 1.32 1.34 1.30 1.25 1.22 1.20
0.24 0.26 0.28 0.30 0.32 0.32 0.33 0.32 0.32 0.30 0.27 0.28 0.29 0.31 0.39 0.52 0.65 0.64 0.64 0.62 0.59 0.79 0.76 0.80 0.89 0.88 0.99 1.09 1.16 1.21 1.25 1.24 1.23 1.18 1.17 1.17 1.14 1.10
0.26 0.26 0.26 0.29 0.31 0.32 0.33 0.33 0.34 0.34 0.34 0.31 0.28 0.29 0.30 0.37 0.43 0.53 0.63 0.64 0.64 0.73 0.72 0.68 0.78 0.79 0.87 0.95 0.97 1.06 1.07 1.07 1.10 1.13 1.10 1.10 1.09 1.06
0.28 0.28 0.28 0.28 0.31 0.31 0.32 0.31 0.31 0.32 0.33 0.34 0.33 0.32 0.33 0.34 0.36 0.39 0.46 0.62 0.69 0.73 0.77 0.66 0.75 0.73 0.80 0.84 0.92 0.94 0.96 0.99 1.01 1.00 1.01 1.00 1.00 0.98
0.29 0.30 0.30 0.30 0.31 0.32 0.32 0.31 0.31 0.31 0.36 0.35 0.35 0.35 0.35 0.34 0.35 0.34 0.34 0.39 0.50 0.66 0.74 0.69 0.72 0.74 0.76 0.79 0.84 0.84 0.85 0.91 0.92 0.90 0.88 0.93 0.93 0.92
0.29 0.30 0.31 0.32 0.32 0.33 0.33 0.32 0.30 0.31 0.32 0.33 0.34 0.35 0.35 0.34 0.35 0.36 0.34 0.32 0.37 0.49 0.72 0.69 0.69 0.70 0.64 0.77 0.78 0.83 0.83 0.86 0.85 0.84 0.87 0.87 0.87 0.84
0.28 0.29 0.32 0.33 0.33 0.34 0.36 0.35 0.34 0.35 0.35 0.34 0.34 0.35 0.36 0.34 0.34 0.36 0.37 0.35 0.34 0.39 0.62 0.70 0.68 0.67 0.67 0.66 0.68 0.71 0.73 0.74 0.77 0.78 0.79 0.79 0.77 0.77
0.30 0.33 0.34 0.35 0.35 0.35 0.35 0.36 0.36 0.37 0.36 0.35 0.34 0.34 0.35 0.35 0.35 0.35 0.37 0.39 0.41 0.41 0.51 0.61 0.64 0.66 0.64 0.61 0.61 0.66 0.67 0.69 0.70 0.70 0.71 0.71 0.71 0.71
0.35 0.36 0.37 0.37 0.37 0.37 0.36 0.36 0.37 0.38 0.37 0.36 0.35 0.37 0.39 0.41 0.40 0.38 0.39 0.41 0.43 0.44 0.48 0.56 0.61 0.63 0.62 0.59 0.56 0.58 0.57 0.60 0.62 0.63 0.63 0.62 0.63 0.63
0.36 0.37 0.38 0.38 0.39 0.40 0.40 0.40 0.40 0.41 0.40 0.39 0.39 0.42 0.44 0.43 0.42 0.41 0.37 0.38 0.38 0.40 0.47 0.52 0.56 0.60 0.57 0.59 0.58 0.54 0.53 0.51 0.56 0.55 0.58 0.59 0.59 0.58
0.37 0.38 0.38 0.38 0.38 0.39 0.40 0.41 0.43 0.44 0.42 0.43 0.42 0.43 0.43 0.43 0.43 0.44 0.40 0.39 0.37 0.38 0.40 0.46 0.50 0.53 0.56 0.57 0.53 0.53 0.52 0.51 0.52 0.52 0.53 0.50 0.50 0.51
0.38 0.37 0.37 0.37 0.37 0.38 0.38 0.39 0.41 0.42 0.42 0.42 0.42 0.43 0.42 0.43 0.44 0.44 0.42 0.40 0.39 0.40 0.41 0.44 0.46 0.45 0.46 0.50 0.55 0.51 0.50 0.49 0.50 0.50 0.51 0.47 0.47 0.50
0.38 0.38 0.37 0.37 0.37 0.38 0.39 0.40 0.40 0.41 0.42 0.42 0.41 0.43 0.44 0.45 0.45 0.44 0.43 0.43 0.42 0.43 0.44 0.46 0.46 0.44 0.40 0.37 0.44 0.50 0.46 0.47 0.47 0.46 0.47 0.45 0.43 0.44
0.38 0.37 0.37 0.38 0.39 0.39 0.39 0.40 0.41 0.42 0.42 0.41 0.41 0.42 0.44 0.45 0.44 0.43 0.43 0.43 0.43 0.43 0.43 0.46 0.46 0.45 0.41 0.38 0.37 0.41 0.47 0.43 0.42 0.41 0.41 0.42 0.43 0.45
0.39 0.39 0.39 0.40 0.40 0.41 0.41 0.41 0.41 0.41 0.43 0.43 0.42 0.42 0.44 0.45 0.44 0.44 0.43 0.43 0.43 0.43 0.41 0.42 0.45 0.49 0.47 0.45 0.37 0.35 0.39 0.43 0.43 0.40 0.39 0.38 0.36 0.37
0.40 0.40 0.41 0.42 0.42 0.42 0.42 0.42 0.42 0.42 0.42 0.43 0.43 0.42 0.43 0.45 0.45 0.44 0.44 0.43 0.43 0.43 0.42 0.44 0.46 0.46 0.43 0.39 0.35 0.35 0.36 0.39 0.42 0.42 0.42 0.41 0.37 0.33
0.41 0.42 0.42 0.43 0.43 0.43 0.42 0.41 0.41 0.41 0.42 0.43 0.43 0.43 0.44 0.43 0.47 0.46 0.45 0.45 0.44 0.42 0.41 0.41 0.42 0.42 0.40 0.38 0.37 0.35 0.35 0.35 0.36 0.36 0.37 0.41 0.41 0.40

GFSNE_prec_pwat_285.txt.gz
Precipitable_Water
0.44 0.46 0.47 0.52 0.56 0.57 0.64 0.67 0.63 0.54 0.55 0.69 0.78 0.93 1.02 1.12 1.12 1.17 1.21 1.31 1.35 1.39 1.40 1.30 1.27 1.25 1.24 1.24 1.24 1.23 1.21 1.19 1.18 1.23 1.33 1.34 1.28 1.26
0.31 0.32 0.34 0.40 0.43 0.47 0.47 0.45 0.45 0.44 0.37 0.48 0.52 0.65 0.75 0.81 0.86 0.94 1.01 1.13 1.19 1.27 1.26 1.26 1.20 1.15 1.14 1.17 1.19 1.21 1.19 1.20 1.20 1.19 1.22 1.35 1.41 1.39
0.28 0.29 0.30 0.32 0.32 0.34 0.38 0.36 0.35 0.37 0.30 0.33 0.39 0.41 0.44 0.47 0.58 0.70 0.84 0.91 1.00 1.09 1.09 1.07 1.01 0.98 0.99 1.01 1.04 1.10 1.15 1.16 1.17 1.20 1.23 1.25 1.32 1.40
0.27 0.28 0.29 0.31 0.31 0.34 0.33 0.31 0.33 0.33 0.31 0.28 0.33 0.35 0.36 0.38 0.39 0.43 0.47 0.58 0.70 0.77 0.79 0.84 0.85 0.84 0.85 0.85 0.86 0.91 1.03 1.08 1.12 1.17 1.21 1.24 1.24 1.30
0.26 0.28 0.29 0.31 0.31 0.32 0.29 0.30 0.29 0.31 0.31 0.28 0.28 0.33 0.36 0.39 0.36 0.37 0.37 0.39 0.40 0.42 0.45 0.61 0.74 0.75 0.75 0.76 0.76 0.78 0.89 1.00 1.08 1.15 1.22 1.23 1.22 1.28
0.26 0.28 0.30 0.30 0.30 0.28 0.28 0.28 0.29 0.28 0.28 0.26 0.26 0.29 0.32 0.36 0.38 0.36 0.30 0.32 0.32 0.34 0.35 0.46 0.58 0.66 0.71 0.71 0.70 0.71 0.75 0.89 0.99 1.09 1.17 1.21 1.21 1.28
0.26 0.29 0.30 0.32 0.32 0.32 0.31 0.29 0.29 0.27 0.25 0.24 0.24 0.25 0.27 0.29 0.30 0.33 0.30 0.29 0.29 0.33 0.36 0.38 0.40 0.39 0.56 0.66 0.68 0.69 0.70 0.75 0.87 0.96 1.10 1.12 1.17 1.20
0.26 0.28 0.30 0.30 0.31 0.31 0.32 0.33 0.33 0.29 0.27 0.26 0.25 0.25 0.26 0.29 0.32 0.31 0.30 0.28 0.23 0.33 0.32 0.28 0.37 0.35 0.46 0.53 0.62 0.69 0.70 0.72 0.75 0.80 0.92 1.03 0.99 1.02
0.28 0.28 0.27 0.29 0.31 0.31 0.32 0.32 0.33 0.33 0.34 0.33 0.28 0.29 0.28 0.32 0.33 0.31 0.30 0.30 0.28 0.32 0.32 0.26 0.35 0.35 0.46 0.51 0.56 0.63 0.67 0.71 0.73 0.77 0.80 0.88 0.91 0.92
0.27 0.28 0.28 0.29 0.31 0.32 0.32 0.32 0.33 0.34 0.35 0.36 0.35 0.34 0.35 0.36 0.36 0.35 0.34 0.34 0.35 0.36 0.37 0.28 0.35 0.38 0.44 0.49 0.54 0.59 0.64 0.66 0.70 0.72 0.75 0.74 0.78 0.80
0.26 0.28 0.30 0.31 0.33 0.35 0.34 0.33 0.32 0.34 0.38 0.40 0.40 0.39 0.38 0.38 0.40 0.39 0.35 0.33 0.30 0.32 0.38 0.36 0.39 0.40 0.43 0.46 0.53 0.57 0.62 0.64 0.65 0.66 0.68 0.70 0.73 0.72
0.27 0.29 0.31 0.33 0.35 0.37 0.35 0.35 0.34 0.37 0.40 0.40 0.41 0.42 0.42 0.42 0.43 0.43 0.41 0.34 0.33 0.31 0.42 0.38 0.39 0.41 0.39 0.48 0.49 0.56 0.59 0.62 0.63 0.64 0.64 0.65 0.68 0.70
0.26 0.28 0.32 0.35 0.36 0.37 0.39 0.40 0.40 0.41 0.41 0.41 0.42 0.43 0.45 0.44 0.44 0.45 0.46 0.43 0.38 0.35 0.42 0.41 0.38 0.37 0.38 0.39 0.46 0.54 0.56 0.59 0.61 0.62 0.62 0.62 0.63 0.66
0.27 0.30 0.34 0.36 0.37 0.40 0.42 0.43 0.42 0.42 0.42 0.42 0.41 0.41 0.42 0.44 0.47 0.47 0.48 0.48 0.48 0.46 0.48 0.47 0.39 0.38 0.36 0.38 0.40 0.50 0.53 0.57 0.59 0.58 0.59 0.61 0.60 0.62
0.31 0.33 0.35 0.37 0.40 0.43 0.44 0.43 0.43 0.42 0.41 0.40 0.40 0.42 0.44 0.47 0.48 0.48 0.50 0.50 0.51 0.53 0.52 0.51 0.46 0.43 0.40 0.38 0.41 0.45 0.46 0.50 0.55 0.56 0.56 0.57 0.57 0.57
0.32 0.34 0.37 0.40 0.43 0.44 0.43 0.43 0.43 0.42 0.41 0.40 0.41 0.44 0.46 0.46 0.44 0.46 0.45 0.46 0.46 0.45 0.51 0.51 0.49 0.47 0.42 0.43 0.45 0.46 0.48 0.44 0.51 0.53 0.54 0.54 0.56 0.56
0.32 0.35 0.37 0.40 0.40 0.41 0.41 0.42 0.42 0.42 0.41 0.42 0.42 0.41 0.43 0.44 0.43 0.45 0.45 0.45 0.43 0.43 0.45 0.48 0.49 0.49 0.48 0.46 0.43 0.46 0.48 0.46 0.49 0.50 0.50 0.48 0.50 0.51
0.33 0.34 0.36 0.40 0.40 0.40 0.40 0.40 0.42 0.42 0.42 0.42 0.41 0.41 0.42 0.43 0.43 0.43 0.44 0.43 0.42 0.44 0.44 0.45 0.45 0.43 0.43 0.45 0.50 0.45 0.46 0.45 0.48 0.48 0.47 0.44 0.44 0.48
0.32 0.35 0.37 0.40 0.41 0.41 0.42 0.41 0.40 0.42 0.44 0.43 0.41 0.41 0.42 0.43 0.42 0.42 0.42 0.43 0.43 0.44 0.44 0.45 0.44 0.43 0.37 0.35 0.44 0.50 0.44 0.45 0.45 0.44 0.45 0.44 0.42 0.44
0.34 0.36 0.39 0.41 0.42 0.42 0.43 0.42 0.42 0.42 0.42 0.42 0.42 0.41 0.42 0.42 0.41 0.41 0.42 0.43 0.43 0.44 0.42 0.44 0.44 0.43 0.39 0.38 0.38 0.43 0.50 0.44 0.43 0.41 0.41 0.43 0.44 0.46
0.34 0.37 0.41 0.42 0.43 0.44 0.43 0.43 0.43 0.42 0.42 0.42 0.42 0.42 0.43 0.42 0.42 0.42 0.43 0.44 0.44 0.43 0.40 0.40 0.44 0.48 0.46 0.45 0.39 0.39 0.42 0.46 0.45 0.41 0.42 0.40 0.38 0.39
0.35 0.38 0.42 0.44 0.44 0.44 0.43 0.43 0.42 0.42 0.42 0.42 0.42 0.42 0.43 0.43 0.42 0.43 0.44 0.44 0.43 0.42 0.41 0.42 0.45 0.45 0.43 0.39 0.36 0.37 0.38 0.41 0.44 0.45 0.45 0.44 0.40 0.34
0.36 0.40 0.43 0.44 0.45 0.45 0.44 0.43 0.43 0.43 0.43 0.42 0.43 0.43 0.44 0.43 0.44 0.45 0.45 0.45 0.43 0.41 0.41 0.40 0.42 0.42 0.40 0.39 0.37 0.37 0.37 0.37 0.38 0.37 0.38 0.42 0.41 0.41

GFSNE_prec_pwat_288.txt.gz
Precipitable_Water
0.27 0.26 0.29 0.30 0.29 0.32 0.34 0.35 0.29 0.21 0.22 0.31 0.34 0.40 0.45 0.50 0.52 0.55 0.59 0.71 0.89 0.95 1.03 1.08 1.10 1.17 1.22 1.20 1.18 1.17 1.17 1.14 1.14 1.15 1.18 1.18 1.19 1.20
0.26 0.26 0.27 0.29 0.30 0.30 0.32 0.34 0.32 0.28 0.22 0.30 0.29 0.35 0.36 0.34 0.39 0.44 0.44 0.44 0.49 0.62 0.73 0.79 0.89 0.99 1.05 1.01 0.97 0.96 1.02 0.99 1.01 1.02 1.04 1.07 1.10 1.17
0.25 0.25 0.27 0.29 0.30 0.32 0.34 0.31 0.26 0.28 0.24 0.25 0.32 0.32 0.29 0.29 0.34 0.39 0.40 0.39 0.40 0.41 0.41 0.42 0.50 0.60 0.77 0.80 0.81 0.85 0.89 0.90 0.90 0.90 0.89 0.95 1.01 1.06
0.22 0.24 0.26 0.29 0.30 0.33 0.31 0.27 0.29 0.29 0.27 0.23 0.27 0.28 0.28 0.31 0.33 0.33 0.37 0.41 0.39 0.37 0.34 0.32 0.33 0.42 0.51 0.57 0.63 0.70 0.77 0.80 0.84 0.81 0.79 0.84 0.91 0.99
0.23 0.25 0.28 0.31 0.31 0.30 0.29 0.28 0.28 0.30 0.27 0.25 0.24 0.28 0.30 0.31 0.30 0.31 0.33 0.32 0.33 0.33 0.32 0.32 0.37 0.44 0.45 0.45 0.44 0.50 0.56 0.62 0.70 0.74 0.74 0.76 0.84 0.91
0.23 0.27 0.30 0.32 0.30 0.29 0.28 0.29 0.29 0.28 0.27 0.25 0.25 0.26 0.28 0.30 0.32 0.28 0.26 0.29 0.27 0.30 0.32 0.38 0.39 0.36 0.34 0.38 0.39 0.44 0.47 0.50 0.54 0.58 0.61 0.69 0.78 0.89
0.24 0.27 0.29 0.30 0.31 0.30 0.30 0.29 0.29 0.27 0.26 0.25 0.25 0.26 0.26 0.27 0.26 0.30 0.28 0.28 0.29 0.32 0.31 0.33 0.33 0.33 0.34 0.38 0.44 0.46 0.48 0.50 0.52 0.54 0.56 0.60 0.66 0.77
0.24 0.27 0.28 0.28 0.29 0.30 0.31 0.32 0.32 0.30 0.28 0.28 0.27 0.26 0.28 0.30 0.32 0.30 0.30 0.27 0.23 0.33 0.31 0.30 0.35 0.32 0.36 0.39 0.45 0.46 0.50 0.51 0.52 0.54 0.56 0.58 0.61 0.71
0.24 0.25 0.25 0.28 0.30 0.31 0.32 0.34 0.35 0.36 0.37 0.34 0.31 0.32 0.32 0.35 0.36 0.33 0.32 0.30 0.29 0.34 0.35 0.30 0.37 0.36 0.41 0.44 0.46 0.46 0.51 0.53 0.54 0.55 0.57 0.58 0.60 0.64
0.24 0.25 0.26 0.28 0.31 0.32 0.33 0.33 0.34 0.36 0.38 0.39 0.40 0.40 0.41 0.41 0.40 0.39 0.38 0.37 0.37 0.38 0.40 0.30 0.38 0.39 0.44 0.46 0.46 0.47 0.52 0.53 0.56 0.56 0.57 0.58 0.59 0.61
0.24 0.26 0.28 0.29 0.32 0.34 0.33 0.33 0.35 0.37 0.42 0.43 0.43 0.43 0.43 0.44 0.44 0.43 0.39 0.37 0.34 0.36 0.42 0.37 0.38 0.36 0.40 0.45 0.49 0.53 0.52 0.55 0.55 0.55 0.57 0.58 0.58 0.59
0.24 0.26 0.29 0.32 0.34 0.35 0.35 0.36 0.35 0.38 0.41 0.42 0.42 0.43 0.44 0.45 0.47 0.47 0.44 0.38 0.38 0.36 0.44 0.38 0.38 0.38 0.34 0.43 0.47 0.48 0.51 0.55 0.54 0.55 0.56 0.56 0.58 0.57
0.23 0.25 0.29 0.33 0.35 0.37 0.39 0.40 0.40 0.43 0.42 0.41 0.41 0.42 0.43 0.43 0.45 0.48 0.49 0.45 0.41 0.40 0.47 0.46 0.42 0.42 0.38 0.36 0.41 0.44 0.51 0.53 0.53 0.54 0.55 0.56 0.56 0.56
0.24 0.27 0.30 0.33 0.36 0.39 0.42 0.44 0.45 0.44 0.42 0.41 0.40 0.40 0.40 0.41 0.44 0.47 0.50 0.50 0.49 0.46 0.50 0.50 0.44 0.44 0.41 0.38 0.35 0.41 0.49 0.52 0.51 0.51 0.53 0.54 0.55 0.56
0.27 0.29 0.32 0.35 0.38 0.42 0.44 0.44 0.44 0.43 0.42 0.40 0.38 0.39 0.41 0.42 0.45 0.47 0.49 0.49 0.49 0.49 0.51 0.51 0.49 0.48 0.45 0.41 0.37 0.39 0.43 0.47 0.49 0.49 0.50 0.51 0.51 0.53
0.28 0.30 0.33 0.37 0.40 0.42 0.44 0.45 0.45 0.45 0.43 0.41 0.40 0.42 0.44 0.43 0.42 0.45 0.44 0.45 0.43 0.44 0.49 0.52 0.50 0.48 0.44 0.44 0.42 0.40 0.45 0.42 0.47 0.48 0.48 0.49 0.50 0.52
0.28 0.30 0.33 0.35 0.37 0.40 0.43 0.44 0.44 0.44 0.42 0.42 0.42 0.41 0.41 0.42 0.41 0.45 0.44 0.44 0.41 0.41 0.44 0.47 0.48 0.49 0.49 0.46 0.40 0.42 0.43 0.44 0.46 0.46 0.46 0.44 0.47 0.49
0.28 0.28 0.31 0.34 0.37 0.40 0.40 0.41 0.43 0.42 0.42 0.42 0.42 0.41 0.40 0.40 0.40 0.43 0.44 0.42 0.40 0.42 0.43 0.44 0.44 0.43 0.43 0.46 0.48 0.43 0.44 0.43 0.45 0.45 0.45 0.42 0.42 0.46
0.27 0.29 0.31 0.35 0.39 0.41 0.41 0.42 0.40 0.42 0.44 0.42 0.41 0.41 0.41 0.41 0.41 0.41 0.42 0.42 0.41 0.43 0.44 0.44 0.43 0.41 0.36 0.34 0.43 0.49 0.42 0.43 0.43 0.41 0.42 0.42 0.40 0.42
0.28 0.29 0.32 0.37 0.40 0.41 0.42 0.41 0.41 0.42 0.42 0.42 0.41 0.41 0.41 0.41 0.40 0.40 0.41 0.41 0.42 0.43 0.41 0.43 0.43 0.41 0.38 0.36 0.37 0.42 0.48 0.42 0.41 0.39 0.39 0.42 0.44 0.45
0.27 0.30 0.34 0.38 0.41 0.43 0.43 0.43 0.43 0.42 0.42 0.42 0.41 0.41 0.42 0.41 0.41 0.42 0.42 0.43 0.43 0.42 0.39 0.39 0.42 0.46 0.44 0.43 0.37 0.37 0.41 0.46 0.44 0.41 0.41 0.39 0.37 0.38
0.28 0.31 0.35 0.39 0.42 0.43 0.43 0.43 0.42 0.42 0.42 0.42 0.42 0.43 0.43 0.43 0.42 0.42 0.43 0.42 0.41 0.40 0.39 0.41 0.44 0.43 0.40 0.37 0.35 0.36 0.37 0.40 0.44 0.45 0.46 0.43 0.39 0.33
0.29 0.31 0.35 0.39 0.42 0.44 0.44 0.43 0.43 0.43 0.43 0.43 0.43 0.44 0.44 0.43 0.44 0.45 0.44 0.43 0.41 0.40 0.40 0.39 0.40 0.40 0.38 0.37 0.35 0.35 0.36 0.36 0.37 0.37 0.38 0.42 0.41 0.41